TimePST,TemperatureF,Dew PointF,Humidity,Sea Level PressureIn,VisibilityMPH,Wind Direction,Wind SpeedMPH,Gust SpeedMPH,PrecipitationIn,Events,Conditions,WindDirDegrees,DateUTC
12:15 AM,50.0,46.4,87,30.24,8.0,South,6.9,-,N/A,,Unknown,180,2012-11-13 08:15:00
12:55 AM,50.0,46.4,87,30.24,10.0,South,6.9,-,N/A,,Unknown,190,2012-11-13 08:55:00
1:15 AM,50.0,46.4,87,30.24,10.0,South,5.8,-,N/A,,Unknown,180,2012-11-13 09:15:00
1:35 AM,50.0,46.4,87,30.23,10.0,South,6.9,-,N/A,,Unknown,170,2012-11-13 09:35:00
1:55 AM,50.0,46.4,87,30.23,10.0,South,8.1,-,N/A,,Unknown,180,2012-11-13 09:55:00
2:15 AM,50.0,46.4,87,30.23,10.0,South,9.2,-,N/A,,Unknown,180,2012-11-13 10:15:00
2:35 AM,48.2,46.4,93,30.23,10.0,SSW,5.8,-,N/A,,Unknown,200,2012-11-13 10:35:00
2:55 AM,48.2,46.4,93,30.23,8.0,South,5.8,-,N/A,Rain,Light Rain,170,2012-11-13 10:55:00
3:15 AM,48.2,46.4,93,30.23,7.0,South,6.9,-,0.01,Rain,Light Rain,180,2012-11-13 11:15:00
3:35 AM,48.2,46.4,93,30.22,10.0,South,6.9,-,0.01,,Unknown,170,2012-11-13 11:35:00
3:55 AM,48.2,46.4,93,30.22,8.0,SSE,6.9,-,0.02,Rain,Light Rain,160,2012-11-13 11:55:00
4:15 AM,48.2,46.4,93,30.22,10.0,South,5.8,-,N/A,Rain,Light Rain,170,2012-11-13 12:15:00
4:35 AM,48.2,46.4,93,30.22,8.0,South,5.8,-,N/A,,Unknown,170,2012-11-13 12:35:00
4:55 AM,48.2,46.4,93,30.22,9.0,South,4.6,-,N/A,,Unknown,190,2012-11-13 12:55:00
5:15 AM,48.2,46.4,93,30.22,7.0,South,5.8,-,N/A,,Unknown,170,2012-11-13 13:15:00
5:35 AM,48.2,46.4,93,30.22,6.0,South,4.6,-,N/A,,Mist,170,2012-11-13 13:35:00
5:55 AM,48.2,46.4,93,30.22,7.0,South,4.6,-,N/A,,Unknown,180,2012-11-13 13:55:00
6:15 AM,48.2,46.4,93,30.22,10.0,SSW,4.6,-,N/A,,Unknown,210,2012-11-13 14:15:00
6:35 AM,48.2,46.4,93,30.21,10.0,South,4.6,-,N/A,,Unknown,190,2012-11-13 14:35:00
6:55 AM,48.2,46.4,93,30.22,9.0,South,4.6,-,N/A,,Unknown,190,2012-11-13 14:55:00
7:15 AM,48.2,46.4,93,30.21,6.0,South,5.8,-,N/A,,Mist,190,2012-11-13 15:15:00
7:35 AM,48.2,46.4,93,30.21,5.0,SSW,4.6,-,N/A,,Mist,200,2012-11-13 15:35:00
7:55 AM,48.2,46.4,93,30.22,5.0,South,5.8,-,N/A,,Mist,190,2012-11-13 15:55:00
8:15 AM,48.2,46.4,93,30.21,6.0,South,5.8,-,N/A,,Mist,190,2012-11-13 16:15:00
8:35 AM,48.2,46.4,93,30.22,6.0,SSW,4.6,-,N/A,,Mist,200,2012-11-13 16:35:00
8:55 AM,48.2,46.4,93,30.22,5.0,SSW,4.6,-,N/A,,Mist,200,2012-11-13 16:55:00
9:15 AM,48.2,46.4,93,30.22,5.0,South,5.8,-,N/A,,Mist,190,2012-11-13 17:15:00
9:35 AM,48.2,46.4,93,30.21,10.0,South,6.9,-,N/A,,Unknown,190,2012-11-13 17:35:00
9:55 AM,48.2,46.4,93,30.21,10.0,South,6.9,-,N/A,,Unknown,190,2012-11-13 17:55:00
10:15 AM,50.0,46.4,87,30.21,10.0,South,5.8,-,N/A,,Unknown,170,2012-11-13 18:15:00
10:35 AM,50.0,46.4,87,30.21,6.0,South,5.8,-,N/A,,Mist,180,2012-11-13 18:35:00
10:55 AM,51.8,48.2,88,30.21,8.0,South,6.9,-,N/A,,Unknown,180,2012-11-13 18:55:00
11:15 AM,51.8,48.2,88,30.20,10.0,South,8.1,-,N/A,,Unknown,170,2012-11-13 19:15:00
11:35 AM,53.6,48.2,82,30.19,7.0,South,6.9,-,N/A,,Unknown,170,2012-11-13 19:35:00
11:55 AM,53.6,48.2,82,30.19,10.0,SSE,8.1,-,N/A,,Unknown,160,2012-11-13 19:55:00
12:15 PM,53.6,48.2,82,30.18,10.0,South,8.1,-,N/A,,Unknown,180,2012-11-13 20:15:00
12:35 PM,53.6,48.2,82,30.18,10.0,South,8.1,-,N/A,,Unknown,170,2012-11-13 20:35:00
12:55 PM,53.6,48.2,82,30.18,10.0,South,5.8,-,N/A,,Unknown,180,2012-11-13 20:55:00
1:15 PM,53.6,48.2,82,30.18,10.0,SSW,6.9,-,N/A,,Unknown,200,2012-11-13 21:15:00
1:35 PM,53.6,48.2,82,30.17,10.0,South,9.2,-,N/A,,Unknown,190,2012-11-13 21:35:00
1:55 PM,53.6,48.2,82,30.17,10.0,South,6.9,-,N/A,,Unknown,180,2012-11-13 21:55:00
2:15 PM,53.6,48.2,82,30.16,10.0,South,5.8,-,N/A,,Unknown,180,2012-11-13 22:15:00
2:35 PM,53.6,48.2,82,30.16,10.0,SSE,4.6,-,N/A,,Unknown,160,2012-11-13 22:35:00
3:15 PM,53.6,48.2,82,30.16,10.0,South,4.6,-,N/A,,Unknown,190,2012-11-13 23:15:00
3:35 PM,51.8,48.2,88,30.16,7.0,South,5.8,-,0.01,Rain,Light Rain,170,2012-11-13 23:35:00
3:55 PM,51.8,48.2,88,30.16,5.0,SSE,3.5,-,0.02,Rain,Light Rain,160,2012-11-13 23:55:00
4:15 PM,51.8,50.0,94,30.16,5.0,South,4.6,-,0.02,Rain,Light Rain,170,2012-11-14 00:15:00
4:35 PM,50.0,48.2,94,30.15,5.0,SSE,3.5,-,0.02,Rain,Light Rain,160,2012-11-14 00:35:00
4:55 PM,50.0,48.2,94,30.15,10.0,South,4.6,-,0.03,,Unknown,170,2012-11-14 00:55:00
5:15 PM,50.0,48.2,94,30.15,10.0,SW,3.5,-,N/A,,Unknown,230,2012-11-14 01:15:00
5:35 PM,50.0,48.2,94,30.15,10.0,SW,3.5,-,N/A,,Unknown,220,2012-11-14 01:35:00
5:55 PM,50.0,48.2,94,30.15,10.0,SW,3.5,-,N/A,,Unknown,220,2012-11-14 01:55:00
6:15 PM,50.0,48.2,94,30.15,10.0,SSW,3.5,-,N/A,,Unknown,210,2012-11-14 02:15:00
6:35 PM,50.0,48.2,94,30.15,10.0,SSW,3.5,-,N/A,,Unknown,210,2012-11-14 02:35:00
6:55 PM,50.0,48.2,94,30.15,10.0,SW,3.5,-,N/A,,Unknown,220,2012-11-14 02:55:00
7:15 PM,50.0,48.2,94,30.15,10.0,SSE,8.1,-,N/A,,Unknown,160,2012-11-14 03:15:00
7:35 PM,50.0,48.2,94,30.15,10.0,South,6.9,-,N/A,,Unknown,170,2012-11-14 03:35:00
7:55 PM,50.0,48.2,94,30.16,10.0,South,5.8,-,0.01,,Unknown,180,2012-11-14 03:55:00
8:15 PM,50.0,48.2,94,30.16,10.0,SSW,4.6,-,N/A,,Unknown,200,2012-11-14 04:15:00
8:35 PM,50.0,48.2,94,30.17,10.0,South,3.5,-,N/A,,Unknown,190,2012-11-14 04:35:00
8:55 PM,50.0,48.2,94,30.16,6.0,South,4.6,-,N/A,Rain,Light Rain,190,2012-11-14 04:55:00
9:15 PM,50.0,48.2,94,30.17,7.0,South,5.8,-,N/A,Rain,Light Rain,180,2012-11-14 05:15:00
9:35 PM,50.0,48.2,94,30.17,10.0,South,5.8,-,N/A,,Unknown,180,2012-11-14 05:35:00
9:55 PM,50.0,48.2,94,30.17,10.0,South,5.8,-,N/A,,Unknown,170,2012-11-14 05:55:00
10:15 PM,50.0,48.2,94,30.18,10.0,SSW,5.8,-,N/A,,Unknown,200,2012-11-14 06:15:00
10:35 PM,50.0,48.2,94,30.19,10.0,SSW,3.5,-,N/A,,Unknown,200,2012-11-14 06:35:00
10:55 PM,50.0,48.2,94,30.20,10.0,SSW,4.6,-,N/A,,Unknown,200,2012-11-14 06:55:00
11:15 PM,50.0,48.2,94,30.20,7.0,South,3.5,-,N/A,,Unknown,180,2012-11-14 07:15:00
11:35 PM,50.0,48.2,94,30.20,8.0,SSW,4.6,-,N/A,,Unknown,200,2012-11-14 07:35:00
11:55 PM,48.2,48.2,100,30.21,9.0,SSW,5.8,-,N/A,,Unknown,200,2012-11-14 07:55:00